EB2EMZ-15 Weather Reports


time (UTC)temp
C
wind
direction
speed
KPH
gust
KPH
rain 1hr
cm
rain 24hr
cm
rain mn
cm
humidity
%
barometer
mb
20260503022025 13 90 0.0 0.0 0.00 0.00 0.00 89 992.3
20260503021523 13 102 0.0 0.0 0.00 0.00 0.00 88 992.5
20260503021025 13 112 0.0 0.0 0.00 0.00 0.00 88 992.5
20260503020523 13 112 0.0 0.0 0.00 0.00 0.00 88 992.6
20260503020022 13 22 0.0 0.0 0.00 0.00 0.00 88 992.5
20260503015522 13 69 0.0 0.0 0.00 0.00 0.00 88 992.5
20260503015025 13 68 0.0 0.0 0.00 0.00 0.00 88 992.7
20260503014522 13 112 0.0 0.0 0.00 0.00 0.00 88 992.7
20260503014025 13 90 0.0 0.0 0.00 0.00 0.00 88 992.6
20260503013523 13 68 0.0 0.0 0.00 0.00 0.00 88 992.7
20260503013025 13 112 0.0 0.0 0.00 0.00 0.00 88 992.7
20260503012522 13 112 0.0 0.0 0.00 0.00 0.00 88 992.7
20260503012025 13 90 0.0 0.0 0.00 0.00 0.00 88 992.8
20260503011523 13 90 0.0 0.0 0.00 0.00 0.00 88 992.8
20260503011025 13 90 0.0 0.0 0.00 0.00 0.00 88 993.0
20260503010522 13 107 0.0 0.0 0.00 0.00 0.00 88 993.0
20260503010022 13 112 0.0 0.0 0.00 0.00 0.00 88 993.0
20260503005522 13 112 0.0 0.0 0.00 0.00 0.00 88 993.0
20260503005024 13 112 0.0 0.0 0.00 0.00 0.00 88 993.0
20260503004522 13 45 0.0 0.0 0.00 0.00 0.00 88 993.0
20260503004025 13 45 0.0 0.0 0.00 0.00 0.00 88 993.0
20260503003522 13 45 0.0 0.0 0.00 0.00 0.00 88 993.0
20260503003024 13 45 0.0 0.0 0.00 0.00 0.00 88 992.9
20260503002522 14 45 0.0 0.0 0.00 0.00 0.00 88 993.1
20260503002025 14 45 0.0 0.0 0.00 0.00 0.00 88 993.0
20260503001522 14 45 0.0 0.0 0.00 0.00 0.00 88 993.0
20260503001026 14 45 0.0 0.0 0.00 0.00 0.00 88 993.0
20260503000522 14 45 0.0 0.0 0.00 0.00 0.00 88 993.2
20260503000021 14 45 0.0 0.0 0.00 0.00 0.00 88 993.2
20260502235523 14 45 0.0 0.0 0.00 0.00 0.00 88 993.2
20260502235027 14 45 0.0 0.0 0.00 0.00 0.00 88 993.2
20260502234522 14 45 0.0 0.0 0.00 0.00 0.00 87 993.2
20260502234025 14 112 0.0 0.0 0.00 0.00 0.00 87 993.2
20260502233523 14 112 0.0 0.0 0.00 0.00 0.00 87 993.3
20260502233025 15 112 0.0 0.0 0.00 0.00 0.00 87 993.3
20260502232521 15 112 0.0 0.0 0.00 0.00 0.00 87 993.3
20260502232024 15 112 0.0 0.0 0.00 0.00 0.00 87 993.3
20260502231522 15 112 0.0 0.0 0.00 0.00 0.00 87 993.2
20260502231026 15 112 0.0 0.0 0.00 0.00 0.00 87 993.2
20260502230522 15 112 0.0 0.0 0.00 0.00 0.00 87 993.3
20260502225522 15 112 0.0 0.0 0.00 0.00 0.00 87 993.3
20260502225025 15 112 0.0 0.0 0.00 0.00 0.00 87 993.5
20260502224521 15 112 0.0 0.0 0.00 0.00 0.00 87 993.3
20260502224026 15 112 0.0 0.0 0.00 0.00 0.00 87 993.4
20260502223522 15 112 0.0 0.0 0.00 0.00 0.00 87 993.3
20260502223024 15 112 0.0 0.0 0.00 0.00 0.00 87 993.3
20260502222523 15 112 0.0 0.0 0.00 0.00 0.00 87 993.3
20260502222025 15 112 0.0 0.0 0.00 0.00 0.00 87 993.3
20260502221522 14 112 0.0 0.0 0.00 0.00 0.00 87 993.2
20260502221025 15 112 0.0 0.0 0.00 0.00 0.00 87 993.3
20260502220523 15 112 0.0 0.0 0.00 0.00 0.00 87 993.3
20260502220022 15 112 0.0 0.0 0.00 0.00 0.00 87 993.3
20260502215522 15 115 0.0 0.0 0.00 0.00 0.00 87 993.2
20260502215025 15 135 0.0 0.0 0.00 0.00 0.00 87 993.1
20260502214522 15 135 0.0 0.0 0.00 0.00 0.00 87 993.2
20260502214025 15 135 0.0 0.0 0.00 0.00 0.00 87 993.1
20260502213522 15 135 0.0 0.0 0.00 0.00 0.00 87 993.1
20260502213025 15 135 0.0 0.0 0.00 0.00 0.00 87 993.3
20260502212522 15 135 0.0 0.0 0.00 0.00 0.00 87 993.3
20260502212024 15 135 0.0 0.0 0.00 0.00 0.00 87 993.2
20260502211521 15 112 0.0 0.0 0.00 0.00 0.00 87 993.1
20260502211024 15 112 0.0 0.0 0.00 0.00 0.00 87 993.1
20260502210522 15 42 0.0 0.0 0.00 0.00 0.00 87 993.2
20260502210022 15 94 0.0 0.0 0.00 0.00 0.00 87 993.1
20260502205521 15 112 0.0 0.0 0.00 0.00 0.00 86 993.1
20260502205031 15 112 0.0 0.0 0.00 0.00 0.00 86 993.1
20260502204521 15 68 0.0 0.0 0.00 0.00 0.00 86 993.1
20260502204024 15 68 0.0 0.0 0.00 0.00 0.00 86 992.9
20260502203522 15 68 0.0 0.0 0.00 0.00 0.00 85 993.0
20260502203024 15 68 0.0 0.0 0.00 0.00 0.00 85 993.1
20260502202522 15 70 0.0 0.0 0.00 0.00 0.00 85 993.0
20260502202024 16 135 0.0 0.0 0.00 0.00 0.00 85 992.9
20260502201521 16 135 0.0 0.0 0.00 0.00 0.00 85 992.9
20260502201024 16 158 0.0 0.0 0.00 0.00 0.00 85 992.9
20260502200522 16 158 0.0 0.0 0.00 0.00 0.00 85 992.8
20260502200022 16 158 0.0 0.0 0.00 0.00 0.00 85 992.8
20260502195521 16 158 0.0 0.0 0.00 0.00 0.00 85 992.7
20260502195024 16 158 0.0 0.0 0.00 0.00 0.00 85 992.8
20260502194521 16 158 0.0 0.0 0.00 0.00 0.00 85 992.7
20260502194025 16 158 0.0 0.0 0.00 0.00 0.00 84 992.6
20260502193521 16 158 0.0 0.0 0.00 0.00 0.00 84 992.7
20260502193024 16 158 0.0 0.0 0.00 0.00 0.00 84 992.6
20260502192522 16 158 0.0 0.0 0.00 0.00 0.00 84 992.5
20260502192024 17 158 0.0 0.0 0.00 0.00 0.00 84 992.3
20260502191521 17 158 0.0 0.0 0.00 0.00 0.00 84 992.4
20260502191023 17 158 0.0 0.0 0.00 0.00 0.00 84 992.4
20260502190521 17 158 0.0 0.0 0.00 0.00 0.00 83 992.5
20260502190022 17 158 0.0 0.0 0.00 0.00 0.00 83 992.5
20260502185521 17 158 0.0 0.0 0.00 0.00 0.00 83 992.5
20260502185024 17 158 0.0 0.0 0.00 0.00 0.00 83 992.5
20260502184521 17 158 0.0 0.0 0.00 0.00 0.00 83 992.5
20260502184024 17 158 0.0 0.0 0.00 0.00 0.00 83 992.6
20260502183521 17 158 0.0 0.0 0.00 0.00 0.00 83 992.7
20260502183024 17 158 0.0 0.0 0.00 0.00 0.00 83 992.8
20260502182522 17 158 0.0 0.0 0.00 0.00 0.00 83 992.7
20260502182024 17 158 0.0 0.0 0.00 0.00 0.00 83 992.8
20260502181521 17 158 0.0 0.0 0.00 0.00 0.00 83 992.9
20260502181023 17 158 0.0 0.0 0.00 0.00 0.00 83 993.1
20260502180522 17 158 0.0 0.0 0.00 0.00 0.00 83 993.0
20260502164023 19 158 0.0 0.0 0.00 0.00 0.00 80 992.6
20260502163520 19 158 0.0 0.0 0.00 0.00 0.00 80 992.7
20260502163024 19 158 0.0 0.0 0.00 0.00 0.00 80 992.8
20260502162521 19 158 0.0 0.0 0.00 0.00 0.00 80 992.8
20260502162023 19 158 0.0 0.0 0.00 0.00 0.00 80 992.7
20260502161521 19 158 0.0 0.0 0.00 0.00 0.00 79 992.8
20260502161023 18 158 0.0 0.0 0.00 0.00 0.00 79 992.7
20260502160521 18 158 0.0 0.0 0.00 0.00 0.00 79 992.8
20260502152023 18 0 0.0 0.0 0.00 0.00 0.00 79 993.1
20260502151521 18 0 0.0 0.0 0.00 0.00 0.00 79 993.2
20260502151023 17 0 0.0 0.0 0.00 0.00 0.00 78 993.2
20260502150521 17 0 0.0 0.0 0.00 0.00 0.00 78 993.3
20260502130521 20 158 0.0 3.2 0.00 0.00 0.00 70 995.1
20260502123521 22 158 0.0 0.0 0.00 0.00 0.00 69 994.2
20260502123023 22 158 0.0 0.0 0.00 0.00 0.00 69 994.3
20260502122521 22 158 0.0 0.0 0.00 0.00 0.00 69 994.3
20260502122023 22 158 0.0 0.0 0.00 0.00 0.00 68 994.2
20260502121521 22 158 0.0 0.0 0.00 0.00 0.00 68 994.2
20260502121023 21 158 0.0 0.0 0.00 0.00 0.00 69 994.2
20260502120520 21 159 0.0 0.0 0.00 0.00 0.00 70 994.3
20260502115521 21 151 0.0 0.0 0.00 0.00 0.00 73 994.1
20260502115023 20 165 0.0 0.0 0.00 0.00 0.00 74 994.2
20260502114520 20 158 1.6 4.8 0.00 0.00 0.00 75 994.4
20260502114023 20 158 0.0 0.0 0.00 0.00 0.00 76 994.5
20260502113521 20 164 1.6 4.8 0.00 0.00 0.00 77 994.7
20260502113023 19 158 0.0 0.0 0.00 0.00 0.00 78 994.7
20260502112520 19 135 0.0 0.0 0.00 0.00 0.00 78 994.7
20260502112023 18 53 0.0 0.0 0.00 0.00 0.00 78 994.8
20260502111520 18 45 0.0 0.0 0.00 0.00 0.00 78 995.1
20260502111022 18 45 0.0 0.0 0.00 0.00 0.00 78 995.4
20260502110520 18 45 0.0 0.0 0.00 0.00 0.00 77 995.5
20260502110021 18 45 0.0 0.0 0.00 0.00 0.00 76 995.5
20260502105521 18 45 0.0 0.0 0.00 0.00 0.00 75 995.5
20260502105023 18 45 0.0 0.0 0.00 0.00 0.00 74 995.6
20260502104520 18 45 0.0 0.0 0.00 0.00 0.00 73 995.9
20260502104022 19 158 0.0 0.0 0.00 0.00 0.00 70 996.2
20260502103520 20 158 0.0 0.0 0.00 0.00 0.00 67 996.0
20260502103023 20 158 0.0 0.0 0.00 0.00 0.00 65 995.9
20260502102521 21 158 0.0 0.0 0.00 0.00 0.00 63 995.6
20260502102023 21 158 0.0 1.6 0.00 0.00 0.00 62 995.5
20260502101521 21 161 0.0 9.7 0.00 0.00 0.00 61 995.6
20260502101023 22 159 0.0 9.7 0.00 0.00 0.00 59 995.7
20260502100520 23 158 0.0 0.0 0.00 0.00 0.00 57 995.7
20260502091520 26 180 0.0 0.0 0.00 0.00 0.00 53 995.7
20260502091023 25 180 0.0 0.0 0.00 0.00 0.00 54 995.6
20260502090520 25 180 0.0 0.0 0.00 0.00 0.00 55 995.6
20260502071520 18 45 0.0 0.0 0.00 0.00 0.00 68 995.3
20260502071023 18 158 0.0 0.0 0.00 0.00 0.00 68 995.4
20260502070520 18 338 0.0 0.0 0.00 0.00 0.00 68 995.3
20260502070020 18 338 0.0 0.0 0.00 0.00 0.00 68 995.3
20260502065520 18 338 0.0 3.2 0.00 0.00 0.00 68 995.2
20260502065022 18 357 0.0 3.2 0.00 0.00 0.00 69 995.2
20260502064521 18 180 0.0 0.0 0.00 0.00 0.00 69 995.2
20260502064023 18 326 0.0 0.0 0.00 0.00 0.00 68 995.2
20260502063519 18 338 0.0 0.0 0.00 0.00 0.00 69 995.2
20260502063022 18 128 0.0 0.0 0.00 0.00 0.00 68 995.4
20260502062520 18 338 1.6 4.8 0.00 0.00 0.00 69 995.2
20260502062022 18 338 0.0 0.0 0.00 0.00 0.00 68 995.3
20260502061520 18 338 0.0 0.0 0.00 0.00 0.00 69 995.1
20260502061022 18 356 0.0 0.0 0.00 0.00 0.00 68 995.1
20260502060520 18 338 0.0 0.0 0.00 0.00 0.00 68 995.0
20260502060020 18 338 0.0 0.0 0.00 0.00 0.00 68 994.9
20260502055521 18 0 0.0 0.0 0.00 0.00 0.00 68 995.0
20260502055022 18 0 0.0 0.0 0.00 0.00 0.00 68 995.1
20260502054519 18 0 0.0 0.0 0.00 0.00 0.00 68 995.1
20260502054023 18 0 0.0 0.0 0.00 0.00 0.00 68 994.9
20260502053520 18 0 0.0 0.0 0.00 0.00 0.00 68 995.0
20260502053022 18 0 0.0 0.0 0.00 0.00 0.00 68 995.0
20260502052520 18 158 0.0 0.0 0.00 0.00 0.00 68 995.1
20260502052022 18 338 0.0 0.0 0.00 0.00 0.00 68 995.1
20260502051520 18 338 0.0 0.0 0.00 0.00 0.00 68 995.1
20260502051022 18 338 0.0 0.0 0.00 0.00 0.00 68 995.1
20260502050520 18 338 0.0 0.0 0.00 0.00 0.00 68 995.0
20260502050019 18 338 0.0 0.0 0.00 0.00 0.00 67 995.1
20260502045520 18 338 0.0 0.0 0.00 0.00 0.00 67 995.2
20260502045022 18 338 0.0 0.0 0.00 0.00 0.00 67 995.1
20260502044520 18 338 0.0 0.0 0.00 0.00 0.00 67 995.1
20260502044023 18 338 0.0 0.0 0.00 0.00 0.00 66 995.1
20260502043520 18 0 0.0 0.0 0.00 0.00 0.00 66 995.1
20260502043022 18 0 0.0 0.0 0.00 0.00 0.00 66 994.9
20260502042520 18 338 0.0 0.0 0.00 0.00 0.00 66 995.1
20260502042022 18 338 0.0 0.0 0.00 0.00 0.00 66 995.0
20260502041519 18 338 0.0 0.0 0.00 0.00 0.00 66 995.0
20260502041025 18 45 0.0 0.0 0.00 0.00 0.00 66 995.1
20260502040520 18 29 0.0 0.0 0.00 0.00 0.00 66 995.2
20260502040020 18 45 0.0 0.0 0.00 0.00 0.00 66 995.1
20260502035520 18 134 0.0 0.0 0.00 0.00 0.00 66 995.2
20260502035022 18 45 0.0 0.0 0.00 0.00 0.00 66 995.2
20260502034520 18 45 0.0 0.0 0.00 0.00 0.00 66 995.2
20260502034022 18 338 0.0 0.0 0.00 0.00 0.00 66 995.2
20260502033520 18 338 0.0 0.0 0.00 0.00 0.00 66 995.2
20260502033021 18 350 0.0 0.0 0.00 0.00 0.00 66 995.3
20260502032519 18 0 0.0 0.0 0.00 0.00 0.00 66 995.3
20260502032022 18 338 0.0 0.0 0.00 0.00 0.00 66 995.2
20260502031520 18 158 0.0 0.0 0.00 0.00 0.00 66 995.3
20260502031022 18 54 0.0 0.0 0.00 0.00 0.00 66 995.3
20260502030519 18 338 0.0 0.0 0.00 0.00 0.00 66 995.3
20260502030020 18 338 0.0 0.0 0.00 0.00 0.00 66 995.2
20260502025519 18 338 0.0 0.0 0.00 0.00 0.00 66 995.2
20260502025022 18 338 0.0 0.0 0.00 0.00 0.00 66 995.3
20260502024520 18 338 0.0 0.0 0.00 0.00 0.00 66 995.2
20260502024022 18 338 0.0 0.0 0.00 0.00 0.00 65 995.2
20260502023519 18 338 0.0 0.0 0.00 0.00 0.00 65 995.2
20260502023021 18 338 0.0 0.0 0.00 0.00 0.00 65 995.2
20260502022520 18 338 0.0 0.0 0.00 0.00 0.00 66 995.3